Regional Weather Roundup
Issued by NWS

Home | Current Version | Previous Version | Graphics & Text | Print | Product List | Glossary Off
Versions: 1 2 3 4 5 6 7 8 9 10 11 12 13 14 15 16 17 18 19 20 21 22 23 24 25 26 27 28 29 30 31 32 33 34 35 36 37 38 39 40 41 42 43 44 45 46 47 48 49 50

168
ASUS43 KTOP 211408
RWRKS

WEATHER ROUNDUP FOR KANSAS
NATIONAL WEATHER SERVICE GOODLAND KS
900 AM CDT THU MAY 21 2015

NOTE:  "FAIR" INDICATES FEW OR NO CLOUDS BELOW 12,000 FEET WITH NO
SIGNIFICANT WEATHER AND/OR OBSTRUCTIONS TO VISIBILITY.

KSZ001>006-013>018-027>032-041>047-211500-
NORTHWEST KANSAS

CITY           SKY/WX    TMP DP  RH WIND       PRES   REMARKS
GOODLAND       CLOUDY    47  39  74 S10       30.31S
HAYS           SUNNY     48  36  61 N6        30.32S
HILL CITY      SUNNY     49  42  77 CALM      30.32F
RUSSELL        SUNNY     50  43  77 N8        30.31S
$$

KSZ061>065-074>080-084>089-211500-
SOUTHWEST KANSAS

CITY           SKY/WX    TMP DP  RH WIND       PRES   REMARKS
DODGE CITY     SUNNY     50  40  68 N5        30.33R
ELKHART          N/A     47  37  68 E6          N/A
GARDEN CITY    CLOUDY    48  39  71 CALM      30.32R
GREAT BEND     SUNNY     48  41  76 N8        30.32S
LIBERAL        PTSUNNY   48  41  76 E6        30.34S
PRATT          SUNNY     50  41  71 N7        30.33R
$$

KSZ066>073-081>083-090>101-211500-
SOUTHEAST KANSAS

CITY           SKY/WX    TMP DP  RH WIND       PRES   REMARKS
CHANUTE        PTSUNNY   50  45  83 N10       30.28S
COFFEYVILLE    CLOUDY    51  47  86 N9        30.28R
HUTCHINSON     SUNNY     52  42  69 N13       30.31S
MEDICINE LODGE   N/A     52  43  71 N8        30.32R
NEWTON         MOSUNNY   48  39  71 N12       30.32R
PARSONS        CLOUDY    50  47  89 N7        30.29R
WICHITA INTL   MOSUNNY   51  42  71 N9        30.30R
WICHITA JABRA  SUNNY     51  42  71 N15       30.30R
WICHITA MCCONL SUNNY     52  43  72 N13       30.30R
WINFIELD       SUNNY     52  45  77 N9        30.31R
$$

KSZ007>012-019>026-033>040-048>060-102>105-211500-
NORTHEAST KANSAS

CITY           SKY/WX    TMP DP  RH WIND       PRES   REMARKS
CONCORDIA      SUNNY     49  43  80 NW8       30.32S
EMPORIA        SUNNY     50  44  80 N8        30.29F
LAWRENCE       SUNNY     52  43  71 N10       30.30S
MANHATTAN      SUNNY     51  44  77 NE3       30.31S
MARYSVILLE     SUNNY     50  43  76 NW6       30.31S
OLATHE IND     PTSUNNY   50  46  86 N12       30.29S
OLATHE EXE     MOSUNNY   51  45  79 N12       30.28S
SALINA         SUNNY     52  44  74 N9        30.32S
TOPEKA BILLARD SUNNY     52  43  71 N6        30.31S
TOPEKA FORBES  SUNNY     52  42  69 N12       30.29S
$$



USA.gov is the U.S. government's official web portal to all federal, state and local government web resources and services.